This is the latest recevied weather packets stored in our database for station/object KY4GW. If no packets are shown the sender has not sent any weather packets the latest 10 day(s).
| Time | Temp. | Humidity | Pressure | Rain* | Wind** | Luminosity | Snow |
|---|---|---|---|---|---|---|---|
| 1777935479 | 23.33° C | 53% | 1011 hPa | 0 mm | - | 72 W/m² | - |
| 1777935175 | 23.33° C | 51% | 1011 hPa | 0 mm | - | 89 W/m² | - |
| 1777934872 | 23.33° C | 53% | 1011 hPa | 0 mm | - | 89 W/m² | - |
| 1777934569 | 23.33° C | 50% | 1011.3 hPa | 0 mm | - | 94 W/m² | - |
| 1777934266 | 22.78° C | 52% | 1011.3 hPa | 0 mm | - | 82 W/m² | - |
| 1777933961 | 22.78° C | 53% | 1011.3 hPa | 0 mm | - | 79 W/m² | - |
| 1777933658 | 23.33° C | 51% | 1011.6 hPa | 0 mm | - | 65 W/m² | - |
| 1777933355 | 23.33° C | 51% | 1011.6 hPa | 0 mm | - | 70 W/m² | - |
| 1777933053 | 23.89° C | 49% | 1011.6 hPa | 0 mm | - | 76 W/m² | - |
| 1777932750 | 23.89° C | 53% | 1011.6 hPa | 0 mm | - | 87 W/m² | - |
| 1777932446 | 23.89° C | 51% | 1011.6 hPa | 0 mm | - | 91 W/m² | - |
| 1777932144 | 23.89° C | 52% | 1011.6 hPa | 0 mm | - | 88 W/m² | - |
| 1777931840 | 23.89° C | 51% | 1011.3 hPa | 0 mm | - | 111 W/m² | - |
| 1777931537 | 23.89° C | 50% | 1011.3 hPa | 0 mm | - | 97 W/m² | - |
| 1777931233 | 23.89° C | 49% | 1011.3 hPa | 0 mm | - | 94 W/m² | - |
| 1777930930 | 24.44° C | 48% | 1011.6 hPa | 0 mm | - | 115 W/m² | - |
| 1777930627 | 23.89° C | 50% | 1011.6 hPa | 0 mm | - | 161 W/m² | - |
| 1777930323 | 24.44° C | 51% | 1011.6 hPa | 0 mm | - | 122 W/m² | - |
| 1777930020 | 24.44° C | 49% | 1011.3 hPa | 0 mm | - | 114 W/m² | - |
| 1777929716 | 25° C | 52% | 1011.3 hPa | 0 mm | - | 120 W/m² | - |
| 1777929414 | 25° C | 48% | 1011.3 hPa | 0 mm | - | 171 W/m² | - |
| 1777929110 | 25.56° C | 49% | 1011.3 hPa | 0 mm | - | 211 W/m² | - |
| 1777928808 | 25° C | 46% | 1011.3 hPa | 0 mm | - | 529 W/m² | - |
| 1777928504 | 25.56° C | 47% | 1011.3 hPa | 0 mm | - | 315 W/m² | - |
| 1777928202 | 25.56° C | 46% | 1011.6 hPa | 0 mm | - | 507 W/m² | - |
* Rain latest hour (hover to see other rain measurements)
** Current wind speed in m/s (hover to see current wind gust speed)